Welcome to mirrors.dotsrc.org

All our mirrors of open source software are available via http, https, ftp and an onion service. More information about our mirrors including statistics and contact information is available on our mirror info pages.

For information about dotsrc.org and our other services please go to our website.

Index of /ubuntu/pool/universe/k/

File Name  ↓ File Size  ↓ Date  ↓ 
Parent directory/--
ko.tex-extra-hlfont/-2007-11-09 19:03:46
ko.tex-unfonts/-2012-05-02 03:34:28
kedpm/-2012-12-01 05:33:51
kde-artwork-active/-2013-09-20 18:22:41
kayali/-2014-01-26 22:28:25
kingston-update-notifier/-2014-02-19 03:28:51
kosd/-2015-04-26 18:03:16
keepnote/-2015-04-27 15:59:35
kubuntu-patched-l10n/-2015-04-28 18:02:34
key-mon/-2015-04-28 18:02:40
kanla/-2015-04-28 18:02:53
klone/-2015-04-30 13:20:29
kde-l10n-tg/-2015-05-03 08:25:58
kde-l10n-th/-2015-05-03 08:25:58
kde-l10n-vi/-2015-05-03 08:25:58
kyototycoon/-2015-12-04 16:07:43
kcm-qt-graphicssystem/-2015-12-05 01:02:13
kdesudo/-2015-12-05 01:02:14
kpartsplugin/-2015-12-05 01:02:23
kdnssd/-2015-12-05 18:15:41
kscope/-2015-12-12 10:44:31
kwallet/-2015-12-13 18:14:27
konsole4/-2015-12-24 09:05:02
kopete-message-indicator/-2016-01-15 13:04:02
kte-collaborative/-2016-01-16 06:21:17
kimchi/-2016-01-17 23:14:14
kabikaboo/-2016-03-10 12:27:48
kon2/-2016-10-31 18:28:58
kde-l10n-si/-2016-10-31 18:28:59
kaa-imlib2/-2016-11-01 01:04:37
kwin-style-dekorator/-2016-11-01 01:14:45
kopete-plugin-thinklight/-2016-11-01 01:14:46
kiki/-2016-11-01 01:14:49
kitsune/-2016-11-01 01:14:49
kdm-gdmcompat/-2016-11-01 01:14:54
kde-style-skulpture/-2016-11-01 01:14:58
kde-style-polyester/-2016-11-01 01:14:58
kalternatives/-2016-11-01 01:14:59
kaa-base/-2016-11-01 08:04:23
kaa-metadata/-2016-11-01 08:04:23
kwwidgets/-2016-11-01 08:15:32
ksplice/-2016-11-01 08:15:39
kolabadmin/-2016-11-01 08:15:40
kio-ftps/-2016-11-01 08:15:43
kepas/-2016-11-01 08:15:43
kiconedit/-2016-11-01 08:15:43
kgmailnotifier/-2016-11-01 08:15:43
kgrab/-2016-11-01 08:15:43
kftpgrabber/-2016-11-01 08:15:43
kcoloredit/-2016-11-01 08:15:44
kde-thumbnailer-openoffice/-2016-11-01 08:15:44
katoob/-2016-11-01 08:15:45
knowledgeroot/-2016-11-01 13:24:10
kopete-cryptography/-2016-11-02 07:23:17
kdesrc-build/-2016-11-02 12:35:09
kwin-style-crystal/-2016-11-03 13:08:56
kcometen4/-2016-11-03 13:09:02
ktux/-2016-11-03 19:02:45
kde-workspace/-2016-11-04 01:18:51
kdevelop-php-docs/-2017-02-21 00:19:32
kimwitu++/-2017-04-06 06:44:18
klibc/-2017-06-28 18:14:48
ksnapshot/-2018-01-19 09:26:36
knemo/-2018-01-19 09:26:39
kio-mtp/-2018-01-19 09:26:41
kde-style-qtcurve/-2018-01-19 09:26:49
kde-wallpapers/-2018-01-19 09:26:49
kcm-touchpad/-2018-01-19 09:26:51
kde-base-artwork/-2018-01-19 09:26:51
kaya/-2018-01-19 09:26:52
kaptain/-2018-01-19 09:26:52
kumofs/-2018-01-22 08:50:38
korundum/-2018-01-22 08:50:40
kmess/-2018-01-22 08:50:42
kmer-tools/-2018-01-22 08:50:42
kgamma/-2018-01-22 08:50:44
kdev-python/-2018-01-22 08:50:48
kdesdk-strigi-analyzers/-2018-01-22 08:50:48
kdenetwork-strigi-analyzers/-2018-01-22 08:50:49
kdegraphics-strigi-analyzer/-2018-01-22 08:50:52
kdeconnect-plasma/-2018-01-22 08:50:52
kcm-grub2/-2018-01-22 08:50:54
kryo-serializers/-2018-01-23 09:06:42
komparator/-2018-01-23 09:06:51
kdepim4/-2018-01-23 09:06:53
knutclient/-2018-01-23 09:06:53
kmidimon/-2018-01-23 09:06:54
kimwitu/-2018-01-23 09:07:01
kffmpegthumbnailer/-2018-01-23 09:07:10
kadu-mime-tex/-2018-01-23 09:07:43
kontrolpack/-2018-02-06 14:04:52
kamerka/-2018-04-04 09:00:34
kfritz/-2018-04-04 11:25:43
kmldonkey/-2018-04-04 11:25:44
kgraphviewer/-2018-04-04 11:25:51
kredentials/-2018-04-04 21:24:06
kprinter4/-2018-04-04 21:24:10
kubuntu-docs/-2018-06-14 00:14:57
kdbg/-2018-06-22 15:13:14
kde-baseapps/-2018-06-22 15:13:14
kdepim/-2018-06-22 15:13:23
kubernetes/-2018-09-05 19:53:18
kterm/-2018-10-10 00:20:24
krecipes/-2019-08-21 00:39:39
kdepimlibs/-2019-08-29 00:17:44
kactivities/-2019-08-29 00:17:44
kqoauth/-2019-09-04 18:59:50
krank/-2019-10-25 22:37:58
ktap/-2019-11-22 12:13:28
kid/-2019-12-17 13:15:55
kernel-package/-2019-12-26 05:18:38
kimwitu-doc/-2020-01-03 00:24:42
kgb/-2020-03-22 20:30:05
ketchup/-2020-03-27 18:33:15
keylaunch/-2020-04-02 18:09:05
kerneltop/-2020-04-02 18:09:05
keytouch-editor/-2020-04-03 06:13:51
ksh93/-2020-04-03 10:43:29
keyboardcast/-2020-04-05 00:13:27
kubuntu-driver-manager/-2020-04-07 18:33:24
kwstyle/-2020-05-22 05:23:29
kuser/-2020-07-10 21:52:13
kvpm/-2020-07-10 21:52:13
kscd/-2020-07-10 21:52:13
ksaneplugin/-2020-07-10 21:52:13
kppp/-2020-07-10 21:52:13
kirigami/-2020-07-10 21:52:14
klinkstatus/-2020-07-10 21:52:14
klein/-2020-07-10 21:52:14
kfilereplace/-2020-07-10 21:52:15
kdevplatform/-2020-07-10 21:52:16
kdewebdev/-2020-07-10 21:52:16
kate4/-2020-07-10 21:52:16
kdeartwork/-2020-07-10 21:52:16
kde4pimlibs/-2020-07-10 21:52:16
kashmir/-2020-07-10 21:52:16
kaccessible/-2020-07-10 21:52:16
kremotecontrol/-2020-07-10 21:52:16
kvpnc/-2020-07-14 14:44:37
kover/-2020-07-14 14:44:37
kradio4/-2020-07-14 14:44:37
kfilemetadata/-2020-07-14 14:44:38
kde-l10n-lt/-2020-07-14 14:44:39
kde-l10n-km/-2020-07-14 14:44:39
kde-l10n-ar/-2020-07-14 14:44:39
kde-l10n-fa/-2020-07-14 14:44:39
kde-l10n-he/-2020-07-14 14:44:39
kde-l10n-cs/-2020-07-14 14:44:39
kde-l10n-ia/-2020-07-14 14:44:39
kde-l10n-nl/-2020-07-14 14:44:39
kde-runtime/-2020-07-14 14:44:39
kde-l10n-fr/-2020-07-14 14:44:39
kde-l10n-nds/-2020-07-14 14:44:39
kde-l10n-bg/-2020-07-14 14:44:39
kde-l10n-bs/-2020-07-14 14:44:39
kde-l10n-et/-2020-07-14 14:44:39
kde-l10n-pa/-2020-07-14 14:44:39
kde-l10n-hr/-2020-07-14 14:44:39
kde-l10n-ga/-2020-07-14 14:44:39
kde-l10n-nb/-2020-07-14 14:44:39
kde-l10n-ug/-2020-07-14 14:44:39
kde4libs/-2020-07-14 14:44:39
kde-l10n-gl/-2020-07-14 14:44:39
karlyriceditor/-2020-07-14 14:44:39
kde-l10n-hu/-2020-07-14 14:44:39
kde-l10n-es/-2020-07-14 14:44:39
kde-l10n-wa/-2020-07-14 14:44:39
kde-l10n-pl/-2020-07-14 14:44:39
kde-l10n-hi/-2020-07-14 14:44:39
kde-l10n-sr/-2020-07-14 14:44:39
kde-l10n-sl/-2020-07-14 14:44:39
kde-l10n-eo/-2020-07-14 14:44:39
kde-l10n-kk/-2020-07-14 14:44:39
kde-l10n-it/-2020-07-14 14:44:39
kde-l10n-ro/-2020-07-14 14:44:39
kde-l10n-ca/-2020-07-14 14:44:39
kde-l10n-da/-2020-07-14 14:44:39
kde-l10n-is/-2020-07-14 14:44:39
kde-l10n-sk/-2020-07-14 14:44:39
kde-l10n-tr/-2020-07-14 14:44:39
kde-l10n-ast/-2020-07-14 14:44:39
kde-l10n-zhcn/-2020-07-14 14:44:39
kde-l10n-el/-2020-07-14 14:44:39
kde-l10n-uk/-2020-07-14 14:44:39
kde-l10n-nn/-2020-07-14 14:44:39
kde-l10n-mr/-2020-07-14 14:44:39
kde-l10n-ja/-2020-07-14 14:44:39
kde-l10n-de/-2020-07-14 14:44:39
kde-l10n-id/-2020-07-14 14:44:39
kde-l10n-zhtw/-2020-07-14 14:44:39
kde-l10n-ru/-2020-07-14 14:44:39
kde-l10n-ko/-2020-07-14 14:44:39
kde-l10n-engb/-2020-07-14 14:44:39
kde-l10n-pt/-2020-07-14 14:44:39
kde-l10n-lv/-2020-07-14 14:44:39
kde-l10n-eu/-2020-07-14 14:44:39
kde-l10n-ca-valencia/-2020-07-14 14:44:39
kde-l10n-sv/-2020-07-14 14:44:39
kde-l10n-fi/-2020-07-14 14:44:39
kde-l10n-ptbr/-2020-07-14 14:44:39
kombu/-2020-07-14 18:16:44
kwalify/-2020-11-10 11:28:48
kcc/-2020-12-20 11:39:39
kxml2/-2020-12-28 05:24:58
knopflerfish-osgi/-2020-12-28 17:50:13
kytos-sphinx-theme/-2020-12-29 23:34:40
kopano-webapp/-2020-12-29 23:34:41
keysync/-2020-12-29 23:34:41
kido/-2020-12-29 23:34:41
keyringer/-2020-12-29 23:34:41
khmerconverter/-2020-12-29 23:34:41
ktp-legacy-presence-applet/-2020-12-29 23:34:41
kronosnet/-2020-12-29 23:34:41
koji/-2020-12-29 23:34:41
kismet/-2020-12-29 23:34:41
kiki-the-nano-bot/-2020-12-29 23:34:41
kmodpy/-2020-12-29 23:34:41
kodiplatform/-2020-12-29 23:34:41
knocker/-2020-12-29 23:34:41
kcov/-2020-12-29 23:34:41
kobodeluxe/-2020-12-29 23:34:41
kadu/-2020-12-29 23:34:42
k3d/-2020-12-29 23:34:42
keepass2-plugin-keepasshttp/-2021-01-03 23:43:25
kindleclip/-2021-01-06 05:40:42
kdgcommons-java/-2021-01-07 23:53:35
khronos-opencl-man/-2021-01-14 23:29:34
kthresher/-2021-02-05 18:14:00
kboot-utils/-2021-02-18 06:15:27
kmod/-2021-12-23 06:20:50
keymapper/-2021-12-26 05:29:15
kickoff/-2022-04-30 15:59:28
kanboard-cli/-2022-05-28 06:20:14
keepass2/-2022-07-23 08:03:40
kblog/-2022-07-23 08:03:41
kazocsaba-imageviewer/-2022-07-23 08:03:41
kgx/-2022-07-24 01:06:02
ksysguard/-2022-07-24 03:42:29
kunststoff/-2022-07-24 03:42:29
ksh/-2022-07-24 03:42:29
konwert/-2022-07-24 03:42:29
kstart/-2022-07-24 03:42:29
klustakwik/-2022-07-24 03:42:30
king-probe/-2022-07-24 03:42:30
knowl.js/-2022-07-24 03:42:30
kino/-2022-07-24 03:42:30
keyman-config/-2022-07-24 03:42:30
kf5-kdepim-apps-libs/-2022-07-24 03:42:30
keyman-keyboardprocessor/-2022-07-24 03:42:30
kannel-sqlbox/-2022-07-24 03:42:31
kalarmcal/-2022-07-24 03:42:31
kanif/-2022-07-28 23:30:05
kylin-greeter/-2022-08-09 00:34:19
kcm-fcitx5/-2022-08-16 06:38:24
kanjidic/-2022-08-23 17:44:42
khronos-api/-2022-11-06 04:03:35
key-chord-el/-2022-11-06 04:03:39
kytos-utils/-2022-11-12 23:24:30
kraken/-2022-11-20 00:36:04
kanjipad/-2022-11-29 00:37:25
kazam/-2022-11-30 05:44:52
koules/-2022-12-13 12:40:58
krb5-sync/-2022-12-15 20:49:38
keepassx/-2022-12-27 23:29:20
kvmtool/-2022-12-31 06:34:18
kytea/-2022-12-31 06:34:18
ktx/-2023-01-28 18:33:22
keras/-2023-01-31 18:32:37
kworkflow/-2023-02-11 23:34:51
kanjidraw/-2023-02-18 23:34:21
kotlinx-coroutines/-2023-04-02 06:35:36
kotlinx-atomicfu/-2023-04-02 06:35:36
kpatch/-2023-04-11 00:34:37
kernel-handbook/-2023-05-09 05:29:01
knitpy/-2023-05-16 17:29:24
kanboard/-2023-05-16 18:15:38
kanyremote/-2023-07-17 01:14:41
kexec-tools/-2023-07-19 10:34:25
komposter/-2023-07-25 08:50:27
knack/-2023-07-30 17:45:02
kmerresistance/-2023-08-04 03:38:57
kazoo/-2023-08-11 17:14:13
kxd/-2023-08-25 10:04:15
king/-2023-10-26 22:13:07
konfont/-2023-10-26 22:13:20
kmfl-keyboards-mywin/-2023-10-26 22:13:21
klick/-2023-10-28 13:56:44
kafkacat/-2023-11-14 00:40:35
kraken2/-2023-11-28 23:54:36
kernel-wedge/-2023-12-08 05:07:24
kdc2tiff/-2024-01-10 19:14:21
kotlin-mode/-2024-01-10 19:14:21
kissplice/-2024-01-11 01:10:42
kaptive/-2024-01-11 01:10:42
karabo-bridge/-2024-01-11 01:10:42
kephra/-2024-01-11 01:10:42
kitchen/-2024-01-11 01:10:42
kakoune/-2024-01-11 01:10:42
kodi-inputstream-rtmp/-2024-01-11 07:31:04
kpcli/-2024-01-11 07:31:04
kodi-audioencoder-vorbis/-2024-01-11 07:31:04
kiwi-boxed-plugin/-2024-01-13 01:09:13
krb5-strength/-2024-01-13 01:09:13
kma/-2024-01-13 01:09:13
kgb-bot/-2024-01-13 07:20:59
ksh93u+m/-2024-01-16 07:01:36
kmer/-2024-01-19 22:25:47
kineticstools/-2024-01-20 00:36:16
kodi-pvr-dvblink/-2024-01-23 20:21:02
kodi-imagedecoder-heif/-2024-01-23 20:21:02
klepto/-2024-01-31 09:51:33
kotlin/-2024-02-01 07:31:19
kiwi/-2024-02-02 19:15:43
kitchensink-clojure/-2024-02-15 13:37:54
kamcli/-2024-02-15 13:38:02
kodi-pvr-zattoo/-2024-02-16 02:38:14
kodi-pvr-vdr-vnsi/-2024-02-16 02:38:15
kodi-screensaver-shadertoy/-2024-02-16 02:38:15
kodi-pvr-teleboy/-2024-02-16 02:38:15
kodi-vfs-sftp/-2024-02-16 02:38:15
kodi-screensaver-asteroids/-2024-02-16 02:38:15
kodi-pvr-vuplus/-2024-02-16 02:38:15
kodi-screensaver-pingpong/-2024-02-16 02:38:16
kodi-pvr-vbox/-2024-02-16 02:38:16
kodi-pvr-iptvsimple/-2024-02-16 02:38:16
kodi-pvr-sledovanitv-cz/-2024-02-16 02:38:17
kodi-screensaver-greynetic/-2024-02-16 03:22:55
kuttypy/-2024-02-16 18:58:08
kodi-pvr-nextpvr/-2024-02-17 06:54:19
kubuntu-web-shortcuts/-2024-02-17 19:15:30
kstars-data-extra-tycho2/-2024-02-17 19:15:31
kde-service-menu-fuseiso/-2024-02-17 19:15:31
kmc/-2024-02-19 18:46:55
kde-dev-scripts/-2024-02-24 00:59:59
kdeedu-data/-2024-02-24 00:59:59
kajongg/-2024-02-24 07:03:05
keychain/-2024-02-28 05:28:30
khal/-2024-02-29 18:42:58
kore/-2024-03-04 19:05:13
knockpy/-2024-03-08 00:45:02
kbuild/-2024-03-31 01:35:13
kylin-display-switch/-2024-04-02 07:06:23
knowthelist/-2024-04-03 19:19:31
kylin-scanner/-2024-04-03 19:19:31
kookbook/-2024-04-03 19:19:31
kdsoap/-2024-04-04 13:28:59
kylin-burner/-2024-04-04 13:28:59
knxd/-2024-04-04 19:15:24
ktp-text-ui/-2024-04-05 01:26:07
knockd/-2024-04-05 07:45:33
kbtin/-2024-04-05 07:45:34
kseexpr/-2024-04-05 13:13:54
kproperty/-2024-04-05 13:13:54
kaffeine/-2024-04-05 13:13:54
keurocalc/-2024-04-05 13:13:54
kile/-2024-04-05 19:05:28
ktp-common-internals/-2024-04-05 19:05:28
kstars/-2024-04-05 19:05:28
ktp-kded-integration-module/-2024-04-06 13:48:18
ktp-contact-runner/-2024-04-06 13:48:18
ktrip/-2024-04-06 13:48:18
kwave/-2024-04-06 13:48:18
ktimer/-2024-04-06 13:48:18
ktimetracker/-2024-04-06 13:48:18
kwallet-pam/-2024-04-06 13:48:18
ktp-accounts-kcm/-2024-04-06 13:48:18
ktnef/-2024-04-06 13:48:18
ksquares/-2024-04-06 13:48:18
ktp-send-file/-2024-04-06 13:48:18
ksystemstats/-2024-04-06 13:48:18
kylin-video/-2024-04-06 13:48:18
ktuberling/-2024-04-06 13:48:18
ktp-desktop-applets/-2024-04-06 13:48:18
ktikz/-2024-04-06 13:48:18
ktp-filetransfer-handler/-2024-04-06 13:48:18
kspaceduel/-2024-04-06 13:48:18
ktp-approver/-2024-04-06 13:48:18
kteatime/-2024-04-06 13:48:18
kup-backup/-2024-04-06 13:48:18
ktp-contact-list/-2024-04-06 13:48:18
ktouch/-2024-04-06 13:48:18
ktechlab/-2024-04-06 13:48:18
kwalletcli/-2024-04-06 13:48:18
ktp-call-ui/-2024-04-06 13:48:18
ktorrent/-2024-04-06 13:48:18
kubrick/-2024-04-06 13:48:18
ktp-auth-handler/-2024-04-06 13:48:18
ksnakeduel/-2024-04-06 13:48:18
kxstitch/-2024-04-06 13:48:18
knights/-2024-04-06 13:48:19
knotes/-2024-04-06 13:48:19
klavaro/-2024-04-06 13:48:19
kquickimageeditor/-2024-04-06 13:48:19
kmix/-2024-04-06 13:48:19
kmime/-2024-04-06 13:48:19
kpmcore/-2024-04-06 13:48:19
kodi-audioencoder-flac/-2024-04-06 13:48:19
kreport/-2024-04-06 13:48:19
kscreenlocker/-2024-04-06 13:48:19
kmailtransport/-2024-04-06 13:48:19
klines/-2024-04-06 13:48:19
kshisen/-2024-04-06 13:48:19
kpublictransport/-2024-04-06 13:48:19
krfb/-2024-04-06 13:48:19
kodi-vfs-libarchive/-2024-04-06 13:48:19
kodi-inputstream-adaptive/-2024-04-06 13:48:19
kronometer/-2024-04-06 13:48:19
kongress/-2024-04-06 13:48:19
korganizer/-2024-04-06 13:48:19
kolourpaint/-2024-04-06 13:48:19
kjots/-2024-04-06 13:48:19
kompare/-2024-04-06 13:48:19
kmscube/-2024-04-06 13:48:19
krb5-auth-dialog/-2024-04-06 13:48:19
kscreen/-2024-04-06 13:48:19
kpkpass/-2024-04-06 13:48:19
kmouth/-2024-04-06 13:48:19
knavalbattle/-2024-04-06 13:48:19
kshutdown/-2024-04-06 13:48:19
kollision/-2024-04-06 13:48:19
kmail-account-wizard/-2024-04-06 13:48:19
kodi-pvr-mythtv/-2024-04-06 13:48:19
kleborate/-2024-04-06 13:48:19
kruler/-2024-04-06 13:48:19
kjumpingcube/-2024-04-06 13:48:19
koko/-2024-04-06 13:48:19
ksanecore/-2024-04-06 13:48:19
kreversi/-2024-04-06 13:48:19
ksirk/-2024-04-06 13:48:19
kodi-pvr-hts/-2024-04-06 13:48:19
kqtquickcharts/-2024-04-06 13:48:19
kphotoalbum/-2024-04-06 13:48:19
kodi-imagedecoder-raw/-2024-04-06 13:48:19
kmscon/-2024-04-06 13:48:19
kmag/-2024-04-06 13:48:19
kodi-audiodecoder-openmpt/-2024-04-06 13:48:19
kmousetool/-2024-04-06 13:48:19
knetwalk/-2024-04-06 13:48:19
kldap/-2024-04-06 13:48:19
kmplayer/-2024-04-06 13:48:19
kontrast/-2024-04-06 13:48:19
kopete/-2024-04-06 13:48:19
kmbox/-2024-04-06 13:48:19
konquest/-2024-04-06 13:48:19
ksmtp/-2024-04-06 13:48:19
kosmindoormap/-2024-04-06 13:48:19
kiwix/-2024-04-06 13:48:19
kpipewire/-2024-04-06 13:48:19
krename/-2024-04-06 13:48:19
kpimtextedit/-2024-04-06 13:48:19
kopeninghours/-2024-04-06 13:48:19
kross-interpreters/-2024-04-06 13:48:19
kontactinterface/-2024-04-06 13:48:19
klickety/-2024-04-06 13:48:19
kolf/-2024-04-06 13:48:19
kfloppy/-2024-04-06 13:48:20
keybinder-3.0/-2024-04-06 13:48:20
kdesvn/-2024-04-06 13:48:20
kidentitymanagement/-2024-04-06 13:48:20
kdiskmark/-2024-04-06 13:48:20
kgames/-2024-04-06 13:48:20
kdevelop-pg-qt/-2024-04-06 13:48:20
keybinder/-2024-04-06 13:48:20
kdepim-runtime/-2024-04-06 13:48:20
kdiamond/-2024-04-06 13:48:20
kdocker/-2024-04-06 13:48:20
kdepim-addons/-2024-04-06 13:48:20
kfourinline/-2024-04-06 13:48:20
kivy/-2024-04-06 13:48:20
kgoldrunner/-2024-04-06 13:48:20
kdesdk-thumbnailers/-2024-04-06 13:48:20
kget/-2024-04-06 13:48:20
keynav/-2024-04-06 13:48:20
kdeplasma-addons/-2024-04-06 13:48:20
kdevelop-python/-2024-04-06 13:48:20
kdecoration/-2024-04-06 13:48:20
khotkeys/-2024-04-06 13:48:20
kfind/-2024-04-06 13:48:20
killbots/-2024-04-06 13:48:20
kissfft/-2024-04-06 13:48:20
kdevelop-php/-2024-04-06 13:48:20
kildclient/-2024-04-06 13:48:20
kio-gopher/-2024-04-06 13:48:20
kdf/-2024-04-06 13:48:20
kdesdk-kioslaves/-2024-04-06 13:48:20
kiriki/-2024-04-06 13:48:20
kiten/-2024-04-06 13:48:20
kigo/-2024-04-06 13:48:20
kgpg/-2024-04-06 13:48:20
kirigami-gallery/-2024-04-06 13:48:20
kimagemapeditor/-2024-04-06 13:48:20
kimap/-2024-04-06 13:48:20
kf5-messagelib/-2024-04-06 13:48:20
kde-cli-tools/-2024-04-06 13:48:21
katarakt/-2024-04-06 13:48:21
kamoso/-2024-04-06 13:48:21
k4dirstat/-2024-04-06 13:48:21
kalk/-2024-04-06 13:48:21
katomic/-2024-04-06 13:48:21
kanatest/-2024-04-06 13:48:21
kaidan/-2024-04-06 13:48:21
kchmviewer/-2024-04-06 13:48:21
kde-dev-utils/-2024-04-06 13:48:21
kblocks/-2024-04-06 13:48:21
kcron/-2024-04-06 13:48:21
kcheckers/-2024-04-06 13:48:21
kate/-2024-04-06 13:48:21
kalarm/-2024-04-06 13:48:21
kbreakout/-2024-04-06 13:48:21
kbounce/-2024-04-06 13:48:21
kcalutils/-2024-04-06 13:48:21
kcollectd/-2024-04-06 13:48:21
kapptemplate/-2024-04-06 13:48:21
kapman/-2024-04-06 13:48:21
kblackbox/-2024-04-06 13:48:21
kaccounts-providers/-2024-04-06 13:48:21
kawari8/-2024-04-06 13:48:21
kde-gtk-config/-2024-04-06 13:48:21
kclock/-2024-04-06 13:48:21
kasts/-2024-04-06 13:48:21
kconfig-frontends/-2024-04-06 13:48:21
kcachegrind/-2024-04-06 13:48:21
kdebugsettings/-2024-04-06 13:48:21
kaddressbook/-2024-04-06 13:48:21
kbackup/-2024-04-06 18:46:18
kleopatra/-2024-04-06 18:46:18
kalendar/-2024-04-07 12:50:25
kio-extras/-2024-04-08 07:02:47
konclude/-2024-04-08 07:02:47
kiwix-tools/-2024-04-09 01:38:46
kinput2/-2024-04-11 00:50:08
kubuntu-debug-installer/-2024-04-11 00:50:08
komi/-2024-04-11 00:50:08
kluppe/-2024-04-11 00:50:08
kbdd/-2024-04-11 00:50:08
kball/-2024-04-11 00:50:08
kasumi/-2024-04-11 00:50:08
kdrill/-2024-04-12 07:01:57
khmer/-2024-04-12 07:01:57
kdevelop/-2024-04-12 07:01:58
kturtle/-2024-04-13 06:50:35
kcalc/-2024-04-13 06:50:35
ksudoku/-2024-04-13 06:50:35
keditbookmarks/-2024-04-13 06:50:35
kactivitymanagerd/-2024-04-13 06:50:35
kio-fuse/-2024-04-13 06:50:35
kio-admin/-2024-04-13 06:50:35
kamera/-2024-04-13 06:50:35
kmplot/-2024-04-13 06:50:35
ksshaskpass/-2024-04-13 06:50:35
kaccounts-integration/-2024-04-13 06:50:35
kdenetwork-filesharing/-2024-04-13 06:50:35
kipi-plugins/-2024-04-13 06:50:35
kcharselect/-2024-04-13 06:50:35
k3b/-2024-04-13 06:50:35
kgamma5/-2024-04-13 06:50:35
krdc/-2024-04-13 06:50:35
kmines/-2024-04-13 06:50:35
kinfocenter/-2024-04-13 06:50:35
kwordquiz/-2024-04-13 06:50:35
kdegraphics-thumbnailers/-2024-04-13 06:50:35
kcolorchooser/-2024-04-13 06:50:35
kalzium/-2024-04-13 06:50:35
klettres/-2024-04-13 06:50:35
kio-gdrive/-2024-04-13 06:50:35
ksystemlog/-2024-04-13 06:50:35
kmenuedit/-2024-04-13 06:50:35
kig/-2024-04-13 06:50:35
kanagram/-2024-04-13 06:50:35
kmahjongg/-2024-04-13 06:50:35
khangman/-2024-04-13 06:50:35
kde-config-whoopsie/-2024-04-13 06:50:35
kgeography/-2024-04-13 06:50:35
kwrited/-2024-04-13 06:50:35
kbruch/-2024-04-13 06:50:35
kpat/-2024-04-13 06:50:35
kubuntu-notification-helper/-2024-04-13 06:50:35
konversation/-2024-04-13 06:50:35
kmymoney/-2024-04-15 00:45:33
kwayland-integration/-2024-04-15 00:45:33
kirigami-addons/-2024-04-15 00:45:34
kallisto/-2024-04-15 01:53:13
kdiagram/-2024-04-15 06:49:13
kdialog/-2024-04-15 18:45:41
kwalletmanager/-2024-04-16 00:47:49
khelpcenter/-2024-04-16 00:47:49
kcm-fcitx/-2024-04-16 18:55:56
kpeoplevcard/-2024-04-17 12:57:19
kid3/-2024-04-17 12:57:19
konsole/-2024-04-19 06:55:32
kubuntu-wallpapers/-2024-04-19 18:49:33
kim-api/-2024-04-22 10:48:46
kodi-screensaver-pyro/-2024-04-22 15:50:47
kodi-pvr-wmc/-2024-04-22 15:50:47
kodi-visualization-fishbmc/-2024-04-22 15:50:48
kodi-visualization-spectrum/-2024-04-22 15:50:48
kodi-visualization-pictureit/-2024-04-22 15:50:48
kodi-screensaver-biogenesis/-2024-04-22 16:59:38
kodi-audioencoder-lame/-2024-04-22 16:59:49
kodi-audioencoder-wav/-2024-04-22 16:59:49
kodi-audiodecoder-fluidsynth/-2024-04-22 16:59:49
kodi-pvr-filmon/-2024-04-22 16:59:49
kmflcomp/-2024-04-22 16:59:49
kodi-pvr-dvbviewer/-2024-04-22 16:59:50
kodi-visualization-waveform/-2024-04-22 16:59:50
kodi-peripheral-xarcade/-2024-04-22 16:59:50
kodi-pvr-pctv/-2024-04-22 16:59:50
kodi-pvr-mediaportal-tvserver/-2024-04-22 16:59:50
kodi-pvr-argustv/-2024-04-22 16:59:50
kstore/-2024-04-22 16:59:50
kodi-audiodecoder-sidplay/-2024-04-22 16:59:50
kodi-pvr-njoy/-2024-04-22 16:59:50
kodi-pvr-octonet/-2024-04-22 16:59:50
kodi-pvr-hdhomerun/-2024-04-23 18:54:07
kubuntu-installer-prompt/-2024-04-26 00:51:39
kubetail/-2024-05-03 02:39:48
khronos-opengl-man4/-2024-05-03 03:30:26
kiwix-zim-updater/-2024-05-03 03:30:29
klaus/-2024-05-03 03:30:29
keystone-tempest-plugin/-2024-05-03 03:30:32
keyboards-rg/-2024-05-03 03:30:33
kconfiglib/-2024-05-03 03:30:35
keyrings.alt/-2024-05-04 23:48:49
killer/-2024-05-08 23:39:18
kyua/-2024-05-09 12:20:19
kbibtex/-2024-05-09 12:20:21
klog/-2024-05-09 12:20:21
kexi/-2024-05-09 12:20:23
kyotocabinet/-2024-05-09 12:20:25
krusader/-2024-05-09 12:20:26
kubectx/-2024-05-09 12:20:26
kristall/-2024-05-09 12:20:27
kiwisolver/-2024-05-09 12:20:27
ktextaddons/-2024-05-09 12:20:27
kxl/-2024-05-09 12:20:28
kuvert/-2024-05-09 12:20:28
ksmbd-tools/-2024-05-09 12:20:28
kde-inotify-survey/-2024-05-09 12:20:29
kdb/-2024-05-09 12:20:29
kanshi/-2024-05-09 12:20:30
kalign/-2024-05-09 12:20:30
kraft/-2024-05-09 13:19:34
ketm/-2024-05-09 16:01:05
kickpass/-2024-05-09 16:01:12
ksnip/-2024-05-09 22:00:25
kodi-game-libretro/-2024-05-10 02:10:27
kupfer/-2024-05-12 17:58:35
kvirc/-2024-05-14 00:47:28
kapidox/-2024-05-14 04:29:13
ksyntax-highlighting/-2024-05-14 06:05:51
kwindowsystem/-2024-05-14 06:05:51
ki18n/-2024-05-14 06:05:53
kitemviews/-2024-05-14 06:05:53
kplotting/-2024-05-14 06:05:54
kidletime/-2024-05-14 06:05:54
kitemmodels/-2024-05-14 06:05:54
kholidays/-2024-05-14 06:05:54
kcoreaddons/-2024-05-14 06:05:55
kguiaddons/-2024-05-14 06:05:55
kconfig/-2024-05-14 06:05:55
kdnssd-kf5/-2024-05-14 06:05:56
kcalcore/-2024-05-14 06:05:56
kcodecs/-2024-05-14 06:05:56
karchive/-2024-05-14 06:05:56
kdbusaddons/-2024-05-14 06:05:56
kwidgetsaddons/-2024-05-14 07:00:34
kwayland/-2024-05-14 07:00:34
kdoctools/-2024-05-14 08:05:50
kactivities-kf5/-2024-05-14 08:05:51
kauth/-2024-05-14 08:05:51
kcontacts/-2024-05-14 08:05:51
kcrash/-2024-05-14 08:05:52
kunitconversion/-2024-05-14 08:05:54
knotifications/-2024-05-14 08:05:54
kpty/-2024-05-14 08:05:54
kfilemetadata-kf5/-2024-05-14 08:05:54
kpeople/-2024-05-14 09:22:59
kjobwidgets/-2024-05-14 09:22:59
kcompletion/-2024-05-14 09:23:00
kactivities-stats/-2024-05-14 10:22:18
kservice/-2024-05-14 10:22:20
kjs/-2024-05-14 10:22:21
kconfigwidgets/-2024-05-14 10:22:21
kdesignerplugin/-2024-05-14 10:22:22
kpackage/-2024-05-14 10:22:22
kirigami2/-2024-05-14 12:05:24
kwallet-kf5/-2024-05-14 12:05:25
kjsembed/-2024-05-14 12:05:26
kiconthemes/-2024-05-14 12:05:28
kemoticons/-2024-05-14 12:05:29
kdesu/-2024-05-14 12:05:29
ktextwidgets/-2024-05-14 12:05:29
kded/-2024-05-14 12:05:30
kxmlgui/-2024-05-14 13:50:17
kbookmarks/-2024-05-14 15:30:32
kio/-2024-05-14 19:11:29
knewstuff/-2024-05-14 20:54:35
kdeclarative/-2024-05-14 20:54:36
kdav/-2024-05-14 20:54:36
kxmlrpcclient/-2024-05-14 20:54:36
kinit/-2024-05-14 20:54:36
kparts/-2024-05-14 20:54:36
knotifyconfig/-2024-05-14 20:54:37
kross/-2024-05-14 22:34:11
kdewebkit/-2024-05-14 22:34:11
kcmutils/-2024-05-14 22:34:12
kmediaplayer/-2024-05-14 22:34:12
kquickcharts/-2024-05-14 22:34:12
kdelibs4support/-2024-05-14 23:19:23
ktexteditor/-2024-05-14 23:19:23
khtml/-2024-05-15 00:05:07
krunner/-2024-05-15 02:29:21
kup/-2024-05-15 23:50:31
kde-config-systemd/-2024-05-16 14:59:03
krecorder/-2024-05-17 00:53:54
kernsmooth/-2024-05-21 07:24:34
kylin-nm/-2024-05-21 18:44:02
kerneloops/-2024-05-23 23:20:20
kvazaar/-2024-05-24 00:53:20
kalgebra/-2024-05-25 18:45:45
kannel/-2024-05-27 07:04:45
kothic/-2024-05-30 00:53:09
keepassxc/-2024-05-30 00:53:09
kde-spectacle/-2024-06-01 08:35:23
kdsingleapplication/-2024-06-01 08:35:26
kmetronome/-2024-06-01 08:35:32
k2pdfopt/-2024-06-02 12:12:14
kakasi/-2024-06-02 12:45:46
kcolorpicker/-2024-06-02 12:45:46
kimageannotator/-2024-06-02 12:45:46
khronos-opencl-headers/-2024-06-03 18:03:42
k3conf/-2024-06-04 03:54:01
kokkos/-2024-06-04 18:44:09
knot-resolver/-2024-06-04 23:49:01
kegtron-ble/-2024-06-05 18:44:35
kraptor/-2024-06-06 17:03:07
kst/-2024-06-06 18:45:31
kicad-packages3d/-2024-06-07 12:48:11
kicad-symbols/-2024-06-07 12:48:11
kicad-templates/-2024-06-07 12:48:11
kicad-footprints/-2024-06-07 12:48:11
kas/-2024-06-09 00:44:38
keyman/-2024-06-11 15:38:14
klatexformula/-2024-06-11 18:44:23
kimageformats/-2024-06-13 18:51:24
klayout/-2024-06-15 05:13:10
khronos-opencl-clhpp/-2024-06-15 12:47:25
kilo/-2024-06-19 02:11:43
kamailio/-2024-06-19 02:11:47
kylin-process-manager/-2024-06-25 23:27:00
knot/-2024-06-27 07:34:26
kitty/-2024-06-27 13:40:57
kwin/-2024-06-27 19:06:13
kwayland-server/-2024-06-27 19:06:13
krita/-2024-06-28 07:03:46
kuserfeedback/-2024-06-28 18:57:31
kitinerary/-2024-06-29 00:57:56
kelbt/-2024-06-30 12:14:30
kicad/-2024-06-30 12:51:42
kdeconnect/-2024-07-01 00:52:47
kdiff3/-2024-07-01 00:52:47
kubuntu-meta/-2024-07-01 19:08:47
krop/-2024-07-02 07:13:18
keras-applications/-2024-07-02 12:27:24
keras-preprocessing/-2024-07-02 12:27:24
kodi-visualization-shadertoy/-2024-07-03 13:22:17
kodi-inputstream-ffmpegdirect/-2024-07-03 13:22:17
kodi-peripheral-joystick/-2024-07-03 13:22:17
kodi-pvr-stalker/-2024-07-03 13:22:17
kodi-pvr-waipu/-2024-07-03 13:22:18
knews/-2024-07-04 01:36:16
kali/-2024-07-04 01:36:16
kopanocore/-2024-07-04 09:25:38
kind/-2024-07-04 11:47:31
krb5/-2024-07-04 17:12:15
khard/-2024-07-04 18:59:58
klystrack/-2024-07-05 06:14:54
kernelshark/-2024-07-07 07:00:08
kew/-2024-07-07 12:51:46
kdegraphics-mobipocket/-2024-07-08 00:53:38
keepassxc-browser/-2024-07-08 19:01:01
kubuntu-settings/-2024-07-09 21:14:38
kdenlive/-2024-07-09 22:27:52
kafs-client/-2024-07-10 19:24:54
kglobalacceld/-2024-07-11 07:23:58
kappanhang/-2024-07-11 12:49:30
kubecolor/-2024-07-11 12:49:30
kcptun/-2024-07-11 12:49:30
kel-agent/-2024-07-11 12:49:30
kubernetes-split-yaml/-2024-07-11 12:49:30
kwartz-client/-2024-07-12 07:17:07
kglobalaccel/-2024-07-12 13:08:14
kgeotag/-2024-07-12 13:29:08
ktls-utils/-2024-07-12 19:11:26
konqueror/-2024-07-13 00:59:11
kontact/-2024-07-13 00:59:11
kmail/-2024-07-13 00:59:11
kf6-qqc2-desktop-style/-2024-07-13 16:04:25
kf6-purpose/-2024-07-13 16:04:25
kf6-kquickcharts/-2024-07-13 16:04:27
kf6-ksvg/-2024-07-13 16:04:27
kf6-knewstuff/-2024-07-13 16:04:28
kf6-kirigami/-2024-07-13 16:04:28
kf6-kcmutils/-2024-07-13 16:04:31
kf6-kcalendarcore/-2024-07-13 16:04:32
kf6-frameworkintegration/-2024-07-13 16:04:33
kf6-kxmlgui/-2024-07-14 08:29:19
kf6-kio/-2024-07-14 10:19:39
kf6-kdav/-2024-07-14 12:49:44
kf6-kparts/-2024-07-14 12:49:44
kf6-knotifyconfig/-2024-07-14 12:49:44
kf6-baloo/-2024-07-14 12:49:44
kf6-ktexteditor/-2024-07-14 16:14:46
kf6-solid/-2024-07-15 00:53:15
kf6-kuserfeedback/-2024-07-15 00:53:15
kf6-sonnet/-2024-07-15 00:53:15
kf6-kidletime/-2024-07-15 00:53:15
kf6-prison/-2024-07-15 00:53:15
kf6-karchive/-2024-07-15 00:53:15
kf6-kapidox/-2024-07-15 00:53:15
kf6-kwindowsystem/-2024-07-15 00:53:15
kf6-kitemviews/-2024-07-15 00:53:15
kf6-kitemmodels/-2024-07-15 00:53:15
kf6-ktexttemplate/-2024-07-15 00:53:15
kf6-threadweaver/-2024-07-15 00:53:15
kf6-kdbusaddons/-2024-07-15 00:53:15
kf6-kplotting/-2024-07-15 00:53:15
kf6-kguiaddons/-2024-07-15 00:53:15
kf6-kconfig/-2024-07-15 00:53:15
kf6-kcodecs/-2024-07-15 00:53:15
kf6-kdnssd/-2024-07-15 00:53:15
kf6-networkmanager-qt/-2024-07-15 00:53:15
kf6-modemmanager-qt/-2024-07-15 00:53:15
kf6-syntax-highlighting/-2024-07-15 00:53:15
kf6-kcoreaddons/-2024-07-15 00:53:15
kf6-kholidays/-2024-07-15 00:53:15
kf6-kglobalaccel/-2024-07-15 00:53:15
kf6-breeze-icons/-2024-07-15 00:53:16
kf6-attica/-2024-07-15 00:53:16
kf6-bluez-qt/-2024-07-15 00:53:16
ksmtuned/-2024-07-15 05:30:53
kf6-kdesu/-2024-07-15 07:11:33
kf6-kimageformats/-2024-07-15 07:11:33
kf6-kiconthemes/-2024-07-15 07:11:33
kf6-kwallet/-2024-07-15 07:11:33
kf6-kpackage/-2024-07-15 07:11:33
kodi/-2024-07-15 07:11:33
kf6-kded/-2024-07-15 07:11:33
kf6-kpty/-2024-07-15 07:11:33
kf6-kcrash/-2024-07-15 07:11:33
kf6-kjobwidgets/-2024-07-15 07:11:33
kf6-kdeclarative/-2024-07-15 07:11:33
kf6-kdoctools/-2024-07-15 07:11:33
kf6-ki18n/-2024-07-15 07:11:33
kf6-kpeople/-2024-07-15 07:11:33
kf6-kunitconversion/-2024-07-15 07:11:33
kf6-kservice/-2024-07-15 07:11:33
kf6-ktextwidgets/-2024-07-15 07:11:33
kf6-kfilemetadata/-2024-07-15 07:11:33
kf6-syndication/-2024-07-15 07:11:33
kf6-krunner/-2024-07-15 07:11:33
kf6-kstatusnotifieritem/-2024-07-15 07:11:33
kf6-kwidgetsaddons/-2024-07-15 07:11:33
kf6-knotifications/-2024-07-15 07:11:33
kf6-kcolorscheme/-2024-07-15 07:11:34
kf6-kbookmarks/-2024-07-15 07:11:34
kf6-kcontacts/-2024-07-15 07:11:34
kf6-kcompletion/-2024-07-15 07:11:34
kf6-kauth/-2024-07-15 07:11:34
kf6-kconfigwidgets/-2024-07-15 07:11:34